Regional Weather Roundup
Issued by NWS

Home | Current Version | Previous Version | Graphics & Text | Print | Product List | Glossary Off
Versions: 1 2 3 4 5 6 7 8 9 10 11 12 13 14 15 16 17 18 19 20 21 22 23 24

000
ASUS45 KCYS 231810
RWRWY

WYOMING REGIONAL WEATHER ROUNDUP
NATIONAL WEATHER SERVICE CHEYENNE WY
1200 PM MDT THU OCT 23 2014

NOTE:  "FAIR" INDICATES FEW OR NO CLOUDS BELOW 12,000 FEET
WITH NO SIGNIFICANT WEATHER AND/OR OBSTRUCTIONS TO VISIBILITY.

WYZ001-231900-
YELLOWSTONE NATIONAL PARK

CITY           SKY/WX    TMP DP  RH WIND       PRES   REMARKS
LK YELLOWSTONE   N/A     49  24  37 VRB7      30.18
6HR MIN TEMP:  28; 6HR MAX TEMP:  50;

W YELLOWSTONE  NOT AVBL

$$
WYZ002>013-054>058-071-098>099-231900-
NORTHERN WYOMING

CITY           SKY/WX    TMP DP  RH WIND       PRES   REMARKS
JACKSON        PTSUNNY   54  27  35 S13       30.16F
CODY           PTSUNNY   64  12  13 W9G17     29.98
GREYBULL       PTSUNNY   51  23  33 SE3       30.00F
6HR MIN TEMP:  32; 6HR MAX TEMP:  52;

WORLAND        PTSUNNY   55  27  34 NW3       29.99F
6HR MIN TEMP:  32; 6HR MAX TEMP:  55; 6HR PCP: TRACE;

SHERIDAN       PTSUNNY   64  31  28 NE5       29.92F
6HR MIN TEMP:  31; 6HR MAX TEMP:  64;

BUFFALO          N/A     66  18  15 SE8       29.98S
6HR MIN TEMP:  40; 6HR MAX TEMP:  66;

GILLETTE       PTSUNNY   64  24  21 SW13      29.95S
6HR MIN TEMP:  43; 6HR MAX TEMP:  64;

HULETT         FAIR      61  23  23 SW15      29.97
NEWCASTLE      FAIR      57  21  24 SE5       30.02

$$
WYZ014>020-022>026-101>103-231900-
CENTRAL WYOMING

CITY           SKY/WX    TMP DP  RH WIND       PRES   REMARKS
BIG PINEY      MOSUNNY   46  23  40 E5        30.23F
6HR MIN TEMP:  22; 6HR MAX TEMP:  46; 6HR PCP: TRACE;

PINEDALE       CLOUDY    46  21  36 SE3       30.24
DUBOIS         FAIR      54  21  28 MISG      30.12S
LANDER         MOSUNNY   56  26  31 NW5       30.06F
6HR MIN TEMP:  34; 6HR MAX TEMP:  56;

RIVERTON       MOSUNNY   55  23  28 E5        30.08F
6HR MIN TEMP:  40; 6HR MAX TEMP:  55;

CASPER         MOSUNNY   64  24  21 SW24G31   30.08F
6HR MIN TEMP:  45; 6HR MAX TEMP:  64;

DOUGLAS        CLOUDY    68  27  21 W22G28    30.05F
6HR MIN TEMP:  26; 6HR MAX TEMP:  68;


$$
WYZ021-027>030-104>119-231900-
SOUTHERN WYOMING

CITY           SKY/WX    TMP DP  RH WIND       PRES   REMARKS
EVANSTON       MOSUNNY   61  26  26 SW17G25   30.22F
6HR MIN TEMP:  36; 6HR MAX TEMP:  62;

KEMMERER       PTCLDY    55  27  33 SW13      30.23F
FORT BRIDGER   FAIR      58  28  31 CALM      30.24F
ROCK SPRINGS   SUNNY     54  33  45 N3        30.21F
6HR MIN TEMP:  35; 6HR MAX TEMP:  55;

DIXON          FAIR      60  33  37 SW15G22   30.29S
RAWLINS        CLOUDY    55  31  39 W20       30.22F
6HR MIN TEMP:  38; 6HR MAX TEMP:  55;

SARATOGA       FAIR      59  28  31 W16G24    30.25S
LARAMIE        MOSUNNY   59  28  30 W17G25    30.22R
6HR MIN TEMP:  39; 6HR MAX TEMP:  59;

CHEYENNE       PTSUNNY   62  31  31 SW12      30.17F
6HR MIN TEMP:  37; 6HR MAX TEMP:  64;

TORRINGTON     CLOUDY    61  37  41 W5        30.06F
6HR MIN TEMP:  30; 6HR MAX TEMP:  61;

PINE BLUFFS    FAIR      63  41  45 SW15      30.14S

$$



USA.gov is the U.S. government's official web portal to all federal, state and local government web resources and services.